Year,Month,Day,Hour,Minute,Value (Times are PST for temperature in C)
2012,08,02,00,02,13.60
2012,08,02,00,03,13.60
2012,08,02,00,05,13.60
2012,08,02,00,06,13.60
2012,08,02,00,07,13.60
2012,08,02,00,08,13.50
2012,08,02,00,10,13.50
2012,08,02,00,11,13.40
2012,08,02,00,12,13.40
2012,08,02,00,13,13.40
2012,08,02,00,15,13.40
2012,08,02,00,16,13.40
2012,08,02,00,17,13.40
2012,08,02,00,18,13.30
2012,08,02,00,20,13.40
2012,08,02,00,21,13.30
2012,08,02,00,22,13.30
2012,08,02,00,23,13.30
2012,08,02,00,24,13.30
2012,08,02,00,25,13.30
2012,08,02,00,26,13.30
2012,08,02,00,27,13.30
2012,08,02,00,29,13.30
2012,08,02,00,30,13.30
2012,08,02,00,31,13.30
2012,08,02,00,33,13.30
2012,08,02,00,34,13.30
2012,08,02,00,35,13.30
2012,08,02,00,36,13.30
2012,08,02,00,38,13.30
2012,08,02,00,39,13.30
2012,08,02,00,40,13.30
2012,08,02,00,41,13.30
2012,08,02,00,43,13.30
2012,08,02,00,44,13.30
2012,08,02,00,45,13.40
2012,08,02,00,46,13.40
2012,08,02,00,47,13.40
2012,08,02,00,48,13.40
2012,08,02,00,49,13.40
2012,08,02,00,50,13.40
2012,08,02,00,51,13.40
2012,08,02,00,53,13.40
2012,08,02,00,54,13.50
2012,08,02,00,55,13.50
2012,08,02,00,56,13.50
2012,08,02,00,58,13.50
2012,08,02,00,59,13.60
2012,08,02,01,00,13.60
2012,08,02,01,01,13.60
2012,08,02,01,03,13.60
2012,08,02,01,04,13.60
2012,08,02,01,05,13.60
2012,08,02,01,07,13.60
2012,08,02,01,08,13.70
2012,08,02,01,09,13.70
2012,08,02,01,10,13.70
2012,08,02,01,12,13.70
2012,08,02,01,13,13.70
2012,08,02,01,14,13.70
2012,08,02,01,16,13.70
2012,08,02,01,17,13.70
2012,08,02,01,18,13.80
2012,08,02,01,19,13.80
2012,08,02,01,20,13.80
2012,08,02,01,22,13.80
2012,08,02,01,23,13.80
2012,08,02,01,24,13.80
2012,08,02,01,25,13.80
2012,08,02,01,26,13.80
2012,08,02,01,28,13.80
2012,08,02,01,29,13.90
2012,08,02,01,30,13.80
2012,08,02,01,31,13.80
2012,08,02,01,32,13.90
2012,08,02,01,34,13.80
2012,08,02,01,35,13.80
2012,08,02,01,36,13.80
2012,08,02,01,38,13.80
2012,08,02,01,39,13.80
2012,08,02,01,40,13.80
2012,08,02,01,41,13.80
2012,08,02,01,43,13.80
2012,08,02,01,44,13.80
2012,08,02,01,45,13.80
2012,08,02,01,46,13.80
2012,08,02,01,48,13.80
2012,08,02,01,49,13.80
2012,08,02,01,50,13.80
2012,08,02,01,51,13.80
2012,08,02,01,53,13.80
2012,08,02,01,54,13.80
2012,08,02,01,55,13.80
2012,08,02,01,56,13.90
2012,08,02,01,57,13.90
2012,08,02,01,59,13.90
2012,08,02,02,00,13.90
2012,08,02,02,01,13.90
2012,08,02,02,02,13.90
2012,08,02,02,04,13.90
2012,08,02,02,05,13.90
2012,08,02,02,06,13.90
2012,08,02,02,07,13.90
2012,08,02,02,09,13.90
2012,08,02,02,10,14.00
2012,08,02,02,11,14.00
2012,08,02,02,13,14.00
2012,08,02,02,14,14.00
2012,08,02,02,15,14.00
2012,08,02,02,16,14.00
2012,08,02,02,18,14.00
2012,08,02,02,19,14.10
2012,08,02,02,20,14.00
2012,08,02,02,22,14.00
2012,08,02,02,23,14.10
2012,08,02,02,24,14.10
2012,08,02,02,26,14.10
2012,08,02,02,27,14.10
2012,08,02,02,28,14.10
2012,08,02,02,30,14.10
2012,08,02,02,31,14.10
2012,08,02,02,32,14.10
2012,08,02,02,33,14.10
2012,08,02,02,34,14.10
2012,08,02,02,35,14.10
2012,08,02,02,36,14.10
2012,08,02,02,37,14.10
2012,08,02,02,38,14.10
2012,08,02,02,39,14.10
2012,08,02,02,40,14.10
2012,08,02,02,41,14.10
2012,08,02,02,42,14.10
2012,08,02,02,43,14.10
2012,08,02,02,44,14.10
2012,08,02,02,45,14.10
2012,08,02,02,46,14.10
2012,08,02,02,47,14.10
2012,08,02,02,48,14.10
2012,08,02,02,49,14.10
2012,08,02,02,50,14.10
2012,08,02,02,51,14.10
2012,08,02,02,52,14.10
2012,08,02,02,53,14.00
2012,08,02,02,54,14.10
2012,08,02,02,55,14.00
2012,08,02,02,56,14.00
2012,08,02,02,57,14.10
2012,08,02,02,58,14.00
2012,08,02,02,59,14.10
2012,08,02,03,00,14.00
2012,08,02,03,01,14.00
2012,08,02,03,02,14.00
2012,08,02,03,03,14.00
2012,08,02,03,04,14.00
2012,08,02,03,05,14.00
2012,08,02,03,06,14.00
2012,08,02,03,07,14.00
2012,08,02,03,08,14.00
2012,08,02,03,09,14.00
2012,08,02,03,10,13.90
2012,08,02,03,11,13.90
2012,08,02,03,12,13.90
2012,08,02,03,13,13.90
2012,08,02,03,14,13.90
2012,08,02,03,15,13.90
2012,08,02,03,16,13.90
2012,08,02,03,17,13.90
2012,08,02,03,18,13.90
2012,08,02,03,19,13.90
2012,08,02,03,20,13.90
2012,08,02,03,21,13.90
2012,08,02,03,22,13.90
2012,08,02,03,23,13.90
2012,08,02,03,24,13.90
2012,08,02,03,25,13.90
2012,08,02,03,26,13.90
2012,08,02,03,27,13.90
2012,08,02,03,28,13.90
2012,08,02,03,29,13.90
2012,08,02,03,30,13.80
2012,08,02,03,32,13.80
2012,08,02,03,33,13.80
2012,08,02,03,34,13.80
2012,08,02,03,35,13.80
2012,08,02,03,36,13.80
2012,08,02,03,38,13.80
2012,08,02,03,39,13.80
2012,08,02,03,40,13.80
2012,08,02,03,41,13.80
2012,08,02,03,42,13.80
2012,08,02,03,44,13.80
2012,08,02,03,45,13.80
2012,08,02,03,46,13.80
2012,08,02,03,48,13.80
2012,08,02,03,49,13.80
2012,08,02,03,50,13.80
2012,08,02,03,52,13.80
2012,08,02,03,53,13.80
2012,08,02,03,54,13.80
2012,08,02,03,56,13.80
2012,08,02,03,57,13.70
2012,08,02,03,58,13.70
2012,08,02,04,00,13.70
2012,08,02,04,01,13.70
2012,08,02,04,02,13.70
2012,08,02,04,03,13.70
2012,08,02,04,05,13.70
2012,08,02,04,06,13.70
2012,08,02,04,07,13.70
2012,08,02,04,08,13.70
2012,08,02,04,10,13.80
2012,08,02,04,11,13.70
2012,08,02,04,12,13.70
2012,08,02,04,13,13.70
2012,08,02,04,15,13.70
2012,08,02,04,16,13.80
2012,08,02,04,17,13.70
2012,08,02,04,18,13.70
2012,08,02,04,20,13.80
2012,08,02,04,21,13.80
2012,08,02,04,22,13.80
2012,08,02,04,23,13.80
2012,08,02,04,25,13.80
2012,08,02,04,26,13.80
2012,08,02,04,27,13.80
2012,08,02,04,28,13.80
2012,08,02,04,29,13.80
2012,08,02,04,31,13.80
2012,08,02,04,32,13.80
2012,08,02,04,33,13.80
2012,08,02,04,35,13.70
2012,08,02,04,36,13.80
2012,08,02,04,37,13.70
2012,08,02,04,38,13.70
2012,08,02,04,40,13.70
2012,08,02,04,41,13.80
2012,08,02,04,42,13.70
2012,08,02,04,43,13.70
2012,08,02,04,45,13.70
2012,08,02,04,46,13.70
2012,08,02,04,47,13.70
2012,08,02,04,48,13.70
2012,08,02,04,50,13.70
2012,08,02,04,51,13.70
2012,08,02,04,52,13.70
2012,08,02,04,53,13.70
2012,08,02,04,54,13.70
2012,08,02,04,55,13.70
2012,08,02,04,56,13.70
2012,08,02,04,57,13.70
2012,08,02,04,58,13.70
2012,08,02,05,00,13.70
2012,08,02,05,01,13.70
2012,08,02,05,02,13.70
2012,08,02,05,03,13.70
2012,08,02,05,05,13.70
2012,08,02,05,06,13.70
2012,08,02,05,07,13.70
2012,08,02,05,09,13.70
2012,08,02,05,10,13.70
2012,08,02,05,11,13.70
2012,08,02,05,12,13.70
2012,08,02,05,13,13.70
2012,08,02,05,14,13.70
2012,08,02,05,15,13.70
2012,08,02,05,16,13.70
2012,08,02,05,17,13.70
2012,08,02,05,19,13.70
2012,08,02,05,20,13.70
2012,08,02,05,21,13.70
2012,08,02,05,23,13.70
2012,08,02,05,24,13.70
2012,08,02,05,25,13.70
2012,08,02,05,26,13.70
2012,08,02,05,28,13.70
2012,08,02,05,29,13.70
2012,08,02,05,30,13.70
2012,08,02,05,31,13.70
2012,08,02,05,32,13.70
2012,08,02,05,33,13.70
2012,08,02,05,34,13.70
2012,08,02,05,35,13.70
2012,08,02,05,36,13.70
2012,08,02,05,37,13.70
2012,08,02,05,38,13.80
2012,08,02,05,39,13.80
2012,08,02,05,40,13.80
2012,08,02,05,41,13.80
2012,08,02,05,42,13.80
2012,08,02,05,43,13.80
2012,08,02,05,44,13.80
2012,08,02,05,45,13.80
2012,08,02,05,46,13.80
2012,08,02,05,47,13.80
2012,08,02,05,48,13.80
2012,08,02,05,49,13.80
2012,08,02,05,50,13.80
2012,08,02,05,51,13.80
2012,08,02,05,52,13.80
2012,08,02,05,53,13.80
2012,08,02,05,54,13.90
2012,08,02,05,55,13.90
2012,08,02,05,56,13.90
2012,08,02,05,57,13.90
2012,08,02,05,58,13.90
2012,08,02,05,59,13.90
2012,08,02,06,01,13.90
2012,08,02,06,02,13.90
2012,08,02,06,03,13.90
2012,08,02,06,04,13.90
2012,08,02,06,05,13.90
2012,08,02,06,06,13.90
2012,08,02,06,07,13.90
2012,08,02,06,08,13.90
2012,08,02,06,09,13.90
2012,08,02,06,10,13.90
2012,08,02,06,11,13.90
2012,08,02,06,12,13.90
2012,08,02,06,13,13.90
2012,08,02,06,14,13.90
2012,08,02,06,15,13.90
2012,08,02,06,16,13.90
2012,08,02,06,17,13.90
2012,08,02,06,18,13.90
2012,08,02,06,19,13.90
2012,08,02,06,20,13.90
2012,08,02,06,21,13.90
2012,08,02,06,22,13.90
2012,08,02,06,23,13.90
2012,08,02,06,24,13.90
2012,08,02,06,25,13.90
2012,08,02,06,26,13.90
2012,08,02,06,27,13.90
2012,08,02,06,29,13.90
2012,08,02,06,30,13.90
2012,08,02,06,31,14.00
2012,08,02,06,32,14.00
2012,08,02,06,33,14.00
2012,08,02,06,35,14.00
2012,08,02,06,36,14.00
2012,08,02,06,37,14.10
2012,08,02,06,38,14.10
2012,08,02,06,40,14.10
2012,08,02,06,41,14.10
2012,08,02,06,42,14.10
2012,08,02,06,43,14.10
2012,08,02,06,45,14.10
2012,08,02,06,46,14.10
2012,08,02,06,47,14.10
2012,08,02,06,48,14.10
2012,08,02,06,50,14.10
2012,08,02,06,51,14.20
2012,08,02,06,52,14.20
2012,08,02,06,53,14.20
2012,08,02,06,55,14.20
2012,08,02,06,56,14.20
2012,08,02,06,57,14.30
2012,08,02,06,58,14.30
2012,08,02,07,00,14.30
2012,08,02,07,01,14.30
2012,08,02,07,02,14.30
2012,08,02,07,03,14.30
2012,08,02,07,05,14.30
2012,08,02,07,06,14.30
2012,08,02,07,07,14.30
2012,08,02,07,08,14.30
2012,08,02,07,10,14.40
2012,08,02,07,11,14.40
2012,08,02,07,12,14.40
2012,08,02,07,13,14.40
2012,08,02,07,15,14.40
2012,08,02,07,16,14.40
2012,08,02,07,17,14.40
2012,08,02,07,18,14.50
2012,08,02,07,20,14.50
2012,08,02,07,21,14.50
2012,08,02,07,22,14.50
2012,08,02,07,24,14.50
2012,08,02,07,25,14.60
2012,08,02,07,26,14.60
2012,08,02,07,27,14.60
2012,08,02,07,28,14.60
2012,08,02,07,29,14.60
2012,08,02,07,30,14.60
2012,08,02,07,31,14.60
2012,08,02,07,33,14.60
2012,08,02,07,34,14.60
2012,08,02,07,35,14.60
2012,08,02,07,37,14.60
2012,08,02,07,38,14.70
2012,08,02,07,39,14.70
2012,08,02,07,40,14.70
2012,08,02,07,42,14.70
2012,08,02,07,43,14.80
2012,08,02,07,44,14.80
2012,08,02,07,45,14.80
2012,08,02,07,46,14.90
2012,08,02,07,48,14.90
2012,08,02,07,49,14.90
2012,08,02,07,50,14.90
2012,08,02,07,52,15.00
2012,08,02,07,53,15.00
2012,08,02,07,54,15.10
2012,08,02,07,55,15.10
2012,08,02,07,57,15.10
2012,08,02,07,58,15.10
2012,08,02,07,59,15.10
2012,08,02,08,00,15.20
2012,08,02,08,02,15.20
2012,08,02,08,03,15.20
2012,08,02,08,04,15.20
2012,08,02,08,05,15.20
2012,08,02,08,07,15.20
2012,08,02,08,08,15.30
2012,08,02,08,09,15.30
2012,08,02,08,10,15.30
2012,08,02,08,12,15.40
2012,08,02,08,13,15.40
2012,08,02,08,14,15.50
2012,08,02,08,16,15.60
2012,08,02,08,17,15.60
2012,08,02,08,18,15.60
2012,08,02,08,19,15.70
2012,08,02,08,20,15.70
2012,08,02,08,22,15.80
2012,08,02,08,23,15.80
2012,08,02,08,24,15.90
2012,08,02,08,25,15.90
2012,08,02,08,26,15.90
2012,08,02,08,28,15.90
2012,08,02,08,29,16.00
2012,08,02,08,30,16.10
2012,08,02,08,31,16.10
2012,08,02,08,32,16.10
2012,08,02,08,34,16.10
2012,08,02,08,35,16.20
2012,08,02,08,36,16.20
2012,08,02,08,37,16.20
2012,08,02,08,38,16.20
2012,08,02,08,39,16.20
2012,08,02,08,40,16.30
2012,08,02,08,41,16.30
2012,08,02,08,42,16.30
2012,08,02,08,44,16.30
2012,08,02,08,45,16.30
2012,08,02,08,46,16.30
2012,08,02,08,47,16.30
2012,08,02,08,49,16.30
2012,08,02,08,50,16.30
2012,08,02,08,51,16.30
2012,08,02,08,52,16.30
2012,08,02,08,54,16.30
2012,08,02,08,55,16.20
2012,08,02,08,56,16.20
2012,08,02,08,57,16.20
2012,08,02,08,59,16.20
2012,08,02,09,00,16.20
2012,08,02,09,01,16.20
2012,08,02,09,02,16.20
2012,08,02,09,04,16.20
2012,08,02,09,05,16.20
2012,08,02,09,06,16.20
2012,08,02,09,07,16.20
2012,08,02,09,08,16.20
2012,08,02,09,09,16.30
2012,08,02,09,11,16.30
2012,08,02,09,12,16.40
2012,08,02,09,13,16.50
2012,08,02,09,14,16.50
2012,08,02,09,16,16.60
2012,08,02,09,17,16.60
2012,08,02,09,18,16.50
2012,08,02,09,19,16.40
2012,08,02,09,21,16.40
2012,08,02,09,22,16.40
2012,08,02,09,23,16.50
2012,08,02,09,25,16.60
2012,08,02,09,26,16.70
2012,08,02,09,27,16.70
2012,08,02,09,28,16.80
2012,08,02,09,30,16.90
2012,08,02,09,31,17.10
2012,08,02,09,32,17.20
2012,08,02,09,33,17.20
2012,08,02,09,35,17.30
2012,08,02,09,36,17.40
2012,08,02,09,37,17.60
2012,08,02,09,39,17.70
2012,08,02,09,40,17.80
2012,08,02,09,41,17.90
2012,08,02,09,42,18.10
2012,08,02,09,44,18.10
2012,08,02,09,45,18.20
2012,08,02,09,46,18.30
2012,08,02,09,47,18.30
2012,08,02,09,49,18.40
2012,08,02,09,50,18.60
2012,08,02,09,51,18.70
2012,08,02,09,53,18.90
2012,08,02,09,54,19.10
2012,08,02,09,55,19.20
2012,08,02,09,57,19.30
2012,08,02,09,58,19.40
2012,08,02,09,59,19.60
2012,08,02,10,00,19.70
2012,08,02,10,02,19.80
2012,08,02,10,03,19.80
2012,08,02,10,04,19.80
2012,08,02,10,06,19.80
2012,08,02,10,07,19.70
2012,08,02,10,08,19.60
2012,08,02,10,09,19.60
2012,08,02,10,11,19.70
2012,08,02,10,12,19.90
2012,08,02,10,13,20.10
2012,08,02,10,15,20.20
2012,08,02,10,16,20.30
2012,08,02,10,17,20.30
2012,08,02,10,19,20.30
2012,08,02,10,20,20.20
2012,08,02,10,21,20.20
2012,08,02,10,22,20.10
2012,08,02,10,23,20.10
2012,08,02,10,24,20.10
2012,08,02,10,25,20.10
2012,08,02,10,26,20.10
2012,08,02,10,28,19.90
2012,08,02,10,29,19.90
2012,08,02,10,30,19.90
2012,08,02,10,32,19.80
2012,08,02,10,33,19.80
2012,08,02,10,34,19.80
2012,08,02,10,36,19.80
2012,08,02,10,37,19.80
2012,08,02,10,38,19.80
2012,08,02,10,39,19.80
2012,08,02,10,40,19.80
2012,08,02,10,42,19.80
2012,08,02,10,43,19.80
2012,08,02,10,44,19.80
2012,08,02,10,45,19.80
2012,08,02,10,46,19.80
2012,08,02,10,48,19.80
2012,08,02,10,49,19.80
2012,08,02,10,50,19.90
2012,08,02,10,51,19.90
2012,08,02,10,53,20.00
2012,08,02,10,54,20.10
2012,08,02,10,55,20.00
2012,08,02,10,56,19.90
2012,08,02,10,58,19.90
2012,08,02,10,59,19.90
2012,08,02,11,00,19.90
2012,08,02,11,01,19.90
2012,08,02,11,03,19.80
2012,08,02,11,04,19.70
2012,08,02,11,05,19.70
2012,08,02,11,06,19.70
2012,08,02,11,08,19.60
2012,08,02,11,09,19.50
2012,08,02,11,10,19.30
2012,08,02,11,11,19.20
2012,08,02,11,12,19.10
2012,08,02,11,14,18.90
2012,08,02,11,15,18.70
2012,08,02,11,16,18.60
2012,08,02,11,17,18.40
2012,08,02,11,19,18.30
2012,08,02,11,20,18.30
2012,08,02,11,21,18.30
2012,08,02,11,22,18.30
2012,08,02,11,24,18.30
2012,08,02,11,25,18.30
2012,08,02,11,26,18.20
2012,08,02,11,27,18.30
2012,08,02,11,29,18.30
2012,08,02,11,30,18.30
2012,08,02,11,31,18.30
2012,08,02,11,32,18.40
2012,08,02,11,34,18.50
2012,08,02,11,35,18.60
2012,08,02,11,36,18.70
2012,08,02,11,37,18.80
2012,08,02,11,38,18.80
2012,08,02,11,40,18.80
2012,08,02,11,41,18.80
2012,08,02,11,42,18.90
2012,08,02,11,44,19.00
2012,08,02,11,45,19.30
2012,08,02,11,46,19.50
2012,08,02,11,48,19.70
2012,08,02,11,49,19.80
2012,08,02,11,50,19.90
2012,08,02,11,51,20.00
2012,08,02,11,52,20.10
2012,08,02,11,54,20.20
2012,08,02,11,55,20.30
2012,08,02,11,56,20.30
2012,08,02,11,58,20.30
2012,08,02,11,59,20.30
2012,08,02,12,00,20.10
2012,08,02,12,01,19.90
2012,08,02,12,02,19.80
2012,08,02,12,04,19.70
2012,08,02,12,05,19.70
2012,08,02,12,06,19.70
2012,08,02,12,07,19.60
2012,08,02,12,08,19.60
2012,08,02,12,10,19.50
2012,08,02,12,11,19.60
2012,08,02,12,12,19.60
2012,08,02,12,13,19.60
2012,08,02,12,15,19.60
2012,08,02,12,16,19.40
2012,08,02,12,17,19.40
2012,08,02,12,18,19.40
2012,08,02,12,20,19.60
2012,08,02,12,21,19.70
2012,08,02,12,22,19.70
2012,08,02,12,23,19.70
2012,08,02,12,25,19.80
2012,08,02,12,26,19.90
2012,08,02,12,27,20.10
2012,08,02,12,28,20.00
2012,08,02,12,30,20.00
2012,08,02,12,31,20.00
2012,08,02,12,32,20.00
2012,08,02,12,33,19.90
2012,08,02,12,34,19.90
2012,08,02,12,35,19.80
2012,08,02,12,36,19.80
2012,08,02,12,37,19.80
2012,08,02,12,38,19.80
2012,08,02,12,39,19.80
2012,08,02,12,40,19.90
2012,08,02,12,41,20.10
2012,08,02,12,42,20.20
2012,08,02,12,43,20.20
2012,08,02,12,44,20.30
2012,08,02,12,45,20.40
2012,08,02,12,46,20.50
2012,08,02,12,47,20.60
2012,08,02,12,48,20.70
2012,08,02,12,49,20.80
2012,08,02,12,50,20.80
2012,08,02,12,51,20.80
2012,08,02,12,52,20.80
2012,08,02,12,53,20.80
2012,08,02,12,54,20.80
2012,08,02,12,55,20.70
2012,08,02,12,56,20.70
2012,08,02,12,57,20.80
2012,08,02,12,58,20.80
2012,08,02,12,59,20.80
2012,08,02,13,00,20.90
2012,08,02,13,01,21.00
2012,08,02,13,02,21.10
2012,08,02,13,03,21.10
2012,08,02,13,04,21.00
2012,08,02,13,05,20.90
2012,08,02,13,06,20.90
2012,08,02,13,08,20.90
2012,08,02,13,09,20.90
2012,08,02,13,10,21.00
2012,08,02,13,11,21.00
2012,08,02,13,12,20.90
2012,08,02,13,13,20.90
2012,08,02,13,14,20.90
2012,08,02,13,15,20.90
2012,08,02,13,16,20.90
2012,08,02,13,17,20.90
2012,08,02,13,18,20.90
2012,08,02,13,19,20.80
2012,08,02,13,20,20.80
2012,08,02,13,21,20.80
2012,08,02,13,22,20.80
2012,08,02,13,23,20.90
2012,08,02,13,24,20.90
2012,08,02,13,25,20.90
2012,08,02,13,26,20.90
2012,08,02,13,27,20.90
2012,08,02,13,28,20.90
2012,08,02,13,29,20.90
2012,08,02,13,30,20.90
2012,08,02,13,31,20.90
2012,08,02,13,32,20.80
2012,08,02,13,33,20.80
2012,08,02,13,34,20.80
2012,08,02,13,35,20.70
2012,08,02,13,37,20.70
2012,08,02,13,38,20.80
2012,08,02,13,39,20.90
2012,08,02,13,41,20.90
2012,08,02,13,42,20.80
2012,08,02,13,43,20.80
2012,08,02,13,44,20.80
2012,08,02,13,45,20.90
2012,08,02,13,46,21.00
2012,08,02,13,47,21.10
2012,08,02,13,48,21.30
2012,08,02,13,49,21.30
2012,08,02,13,50,21.30
2012,08,02,13,51,21.30
2012,08,02,13,52,21.20
2012,08,02,13,53,21.20
2012,08,02,13,54,21.10
2012,08,02,13,56,21.10
2012,08,02,13,57,21.10
2012,08,02,13,58,21.20
2012,08,02,13,59,21.30
2012,08,02,14,00,21.30
2012,08,02,14,01,21.40
2012,08,02,14,02,21.50
2012,08,02,14,03,21.60
2012,08,02,14,05,21.60
2012,08,02,14,06,21.70
2012,08,02,14,07,21.70
2012,08,02,14,08,21.70
2012,08,02,14,10,21.70
2012,08,02,14,11,21.60
2012,08,02,14,12,21.60
2012,08,02,14,13,21.60
2012,08,02,14,14,21.60
2012,08,02,14,16,21.70
2012,08,02,14,17,21.80
2012,08,02,14,18,21.90
2012,08,02,14,20,21.90
2012,08,02,14,21,22.00
2012,08,02,14,22,22.10
2012,08,02,14,24,22.30
2012,08,02,14,25,22.40
2012,08,02,14,26,22.50
2012,08,02,14,28,22.40
2012,08,02,14,29,22.30
2012,08,02,14,30,22.20
2012,08,02,14,31,22.10
2012,08,02,14,33,21.90
2012,08,02,14,34,21.70
2012,08,02,14,35,21.60
2012,08,02,14,37,21.60
2012,08,02,14,38,21.60
2012,08,02,14,39,21.60
2012,08,02,14,40,21.50
2012,08,02,14,41,21.40
2012,08,02,14,42,21.40
2012,08,02,14,43,21.40
2012,08,02,14,44,21.50
2012,08,02,14,45,21.50
2012,08,02,14,46,21.60
2012,08,02,14,47,21.60
2012,08,02,14,48,21.60
2012,08,02,14,49,21.60
2012,08,02,14,50,21.70
2012,08,02,14,51,21.80
2012,08,02,14,53,21.90
2012,08,02,14,54,22.10
2012,08,02,14,55,22.10
2012,08,02,14,57,22.20
2012,08,02,14,58,22.20
2012,08,02,14,59,22.30
2012,08,02,15,01,22.40
2012,08,02,15,02,22.40
2012,08,02,15,03,22.40
2012,08,02,15,04,22.40
2012,08,02,15,05,22.30
2012,08,02,15,06,22.30
2012,08,02,15,07,22.20
2012,08,02,15,08,22.30
2012,08,02,15,10,22.30
2012,08,02,15,11,22.20
2012,08,02,15,12,22.20
2012,08,02,15,13,22.10
2012,08,02,15,15,22.00
2012,08,02,15,16,21.90
2012,08,02,15,17,21.90
2012,08,02,15,18,22.10
2012,08,02,15,20,22.20
2012,08,02,15,21,22.40
2012,08,02,15,22,22.40
2012,08,02,15,23,22.50
2012,08,02,15,25,22.60
2012,08,02,15,26,22.60
2012,08,02,15,27,22.40
2012,08,02,15,29,22.30
2012,08,02,15,30,22.20
2012,08,02,15,31,22.20
2012,08,02,15,32,22.20
2012,08,02,15,34,22.30
2012,08,02,15,35,22.40
2012,08,02,15,36,22.60
2012,08,02,15,37,22.60
2012,08,02,15,39,22.70
2012,08,02,15,40,22.80
2012,08,02,15,41,22.80
2012,08,02,15,42,22.80
2012,08,02,15,43,22.80
2012,08,02,15,44,22.70
2012,08,02,15,45,22.70
2012,08,02,15,46,22.60
2012,08,02,15,47,22.60
2012,08,02,15,48,22.40
2012,08,02,15,50,22.30
2012,08,02,15,51,22.30
2012,08,02,15,52,22.40
2012,08,02,15,53,22.50
2012,08,02,15,55,22.60
2012,08,02,15,56,22.60
2012,08,02,15,57,22.60
2012,08,02,15,58,22.60
2012,08,02,15,59,22.50
2012,08,02,16,00,22.50
2012,08,02,16,01,22.40
2012,08,02,16,02,22.40
2012,08,02,16,03,22.30
2012,08,02,16,04,22.30
2012,08,02,16,05,22.20
2012,08,02,16,06,22.20
2012,08,02,16,07,22.20
2012,08,02,16,08,22.20
2012,08,02,16,09,22.20
2012,08,02,16,10,22.10
2012,08,02,16,11,22.10
2012,08,02,16,12,22.10
2012,08,02,16,13,22.10
2012,08,02,16,14,22.20
2012,08,02,16,15,22.20
2012,08,02,16,16,22.20
2012,08,02,16,17,22.20
2012,08,02,16,19,22.20
2012,08,02,16,20,22.10
2012,08,02,16,21,21.90
2012,08,02,16,22,21.80
2012,08,02,16,23,21.80
2012,08,02,16,25,21.80
2012,08,02,16,26,21.80
2012,08,02,16,27,21.80
2012,08,02,16,28,21.80
2012,08,02,16,29,21.90
2012,08,02,16,30,22.00
2012,08,02,16,31,22.10
2012,08,02,16,32,22.10
2012,08,02,16,33,22.10
2012,08,02,16,34,22.20
2012,08,02,16,35,22.20
2012,08,02,16,36,22.30
2012,08,02,16,37,22.30
2012,08,02,16,38,22.30
2012,08,02,16,39,22.30
2012,08,02,16,40,22.30
2012,08,02,16,41,22.20
2012,08,02,16,42,22.30
2012,08,02,16,43,22.30
2012,08,02,16,44,22.20
2012,08,02,16,45,22.20
2012,08,02,16,46,22.20
2012,08,02,16,47,22.10
2012,08,02,16,48,22.10
2012,08,02,16,50,22.00
2012,08,02,16,51,21.90
2012,08,02,16,52,21.80
2012,08,02,16,53,21.80
2012,08,02,16,54,21.80
2012,08,02,16,55,21.80
2012,08,02,16,56,21.80
2012,08,02,16,57,21.80
2012,08,02,16,58,21.90
2012,08,02,16,59,21.90
2012,08,02,17,00,21.90
2012,08,02,17,01,21.90
2012,08,02,17,02,21.90
2012,08,02,17,03,21.90
2012,08,02,17,04,21.80
2012,08,02,17,06,21.80
2012,08,02,17,07,21.70
2012,08,02,17,08,21.70
2012,08,02,17,09,21.70
2012,08,02,17,10,21.70
2012,08,02,17,11,21.70
2012,08,02,17,12,21.80
2012,08,02,17,13,21.80
2012,08,02,17,14,21.70
2012,08,02,17,15,21.70
2012,08,02,17,16,21.70
2012,08,02,17,17,21.70
2012,08,02,17,19,21.80
2012,08,02,17,20,21.70
2012,08,02,17,21,21.60
2012,08,02,17,22,21.60
2012,08,02,17,23,21.60
2012,08,02,17,24,21.60
2012,08,02,17,25,21.70
2012,08,02,17,26,21.60
2012,08,02,17,27,21.40
2012,08,02,17,28,21.20
2012,08,02,17,29,21.20
2012,08,02,17,30,21.10
2012,08,02,17,31,21.10
2012,08,02,17,32,21.10
2012,08,02,17,33,21.10
2012,08,02,17,35,21.10
2012,08,02,17,36,21.10
2012,08,02,17,37,21.20
2012,08,02,17,39,21.20
2012,08,02,17,40,21.20
2012,08,02,17,41,21.20
2012,08,02,17,42,21.20
2012,08,02,17,43,21.30
2012,08,02,17,44,21.30
2012,08,02,17,45,21.30
2012,08,02,17,46,21.30
2012,08,02,17,48,21.30
2012,08,02,17,49,21.30
2012,08,02,17,50,21.30
2012,08,02,17,51,21.30
2012,08,02,17,53,21.30
2012,08,02,17,54,21.30
2012,08,02,17,55,21.20
2012,08,02,17,56,21.20
2012,08,02,17,58,21.20
2012,08,02,17,59,21.10
2012,08,02,18,00,21.10
2012,08,02,18,01,21.00
2012,08,02,18,03,21.00
2012,08,02,18,04,21.00
2012,08,02,18,05,20.90
2012,08,02,18,06,20.90
2012,08,02,18,08,20.90
2012,08,02,18,09,20.80
2012,08,02,18,10,20.80
2012,08,02,18,11,20.80
2012,08,02,18,12,20.80
2012,08,02,18,13,20.80
2012,08,02,18,14,20.70
2012,08,02,18,15,20.70
2012,08,02,18,17,20.70
2012,08,02,18,18,20.70
2012,08,02,18,19,20.70
2012,08,02,18,21,20.60
2012,08,02,18,22,20.60
2012,08,02,18,23,20.60
2012,08,02,18,24,20.60
2012,08,02,18,25,20.60
2012,08,02,18,27,20.50
2012,08,02,18,28,20.50
2012,08,02,18,29,20.50
2012,08,02,18,30,20.50
2012,08,02,18,32,20.60
2012,08,02,18,33,20.60
2012,08,02,18,34,20.60
2012,08,02,18,35,20.60
2012,08,02,18,36,20.60
2012,08,02,18,38,20.70
2012,08,02,18,39,20.70
2012,08,02,18,40,20.80
2012,08,02,18,41,20.80
2012,08,02,18,42,20.80
2012,08,02,18,43,20.70
2012,08,02,18,44,20.70
2012,08,02,18,45,20.70
2012,08,02,18,47,20.70
2012,08,02,18,48,20.70
2012,08,02,18,49,20.70
2012,08,02,18,50,20.60
2012,08,02,18,51,20.60
2012,08,02,18,53,20.40
2012,08,02,18,54,20.30
2012,08,02,18,55,20.30
2012,08,02,18,56,20.30
2012,08,02,18,58,20.30
2012,08,02,18,59,20.30
2012,08,02,19,00,20.30
2012,08,02,19,01,20.30
2012,08,02,19,03,20.30
2012,08,02,19,04,20.30
2012,08,02,19,05,20.30
2012,08,02,19,06,20.30
2012,08,02,19,08,20.30
2012,08,02,19,09,20.30
2012,08,02,19,10,20.30
2012,08,02,19,11,20.30
2012,08,02,19,12,20.30
2012,08,02,19,13,20.30
2012,08,02,19,14,20.30
2012,08,02,19,15,20.20
2012,08,02,19,17,20.10
2012,08,02,19,18,20.10
2012,08,02,19,19,20.10
2012,08,02,19,20,20.10
2012,08,02,19,22,20.00
2012,08,02,19,23,19.90
2012,08,02,19,24,19.90
2012,08,02,19,25,19.90
2012,08,02,19,27,19.80
2012,08,02,19,28,19.70
2012,08,02,19,29,19.70
2012,08,02,19,31,19.70
2012,08,02,19,32,19.60
2012,08,02,19,33,19.50
2012,08,02,19,34,19.40
2012,08,02,19,35,19.40
2012,08,02,19,37,19.40
2012,08,02,19,38,19.40
2012,08,02,19,39,19.40
2012,08,02,19,40,19.40
2012,08,02,19,42,19.30
2012,08,02,19,43,19.30
2012,08,02,19,44,19.30
2012,08,02,19,45,19.30
2012,08,02,19,47,19.30
2012,08,02,19,48,19.30
2012,08,02,19,49,19.20
2012,08,02,19,50,19.20
2012,08,02,19,51,19.20
2012,08,02,19,53,19.10
2012,08,02,19,54,19.10
2012,08,02,19,55,19.00
2012,08,02,19,56,18.90
2012,08,02,19,58,18.90
2012,08,02,19,59,18.90
2012,08,02,20,00,18.90
2012,08,02,20,02,18.90
2012,08,02,20,03,18.80
2012,08,02,20,04,18.80
2012,08,02,20,05,18.80
2012,08,02,20,06,18.70
2012,08,02,20,08,18.70
2012,08,02,20,09,18.60
2012,08,02,20,10,18.50
2012,08,02,20,11,18.50
2012,08,02,20,12,18.40
2012,08,02,20,14,18.40
2012,08,02,20,15,18.40
2012,08,02,20,16,18.40
2012,08,02,20,17,18.30
2012,08,02,20,18,18.30
2012,08,02,20,20,18.20
2012,08,02,20,21,18.10
2012,08,02,20,22,18.10
2012,08,02,20,23,18.00
2012,08,02,20,25,18.00